Weather History for Thessaloniki, Greece

Change the Weather History Date:

Sunday, May 26, 2013

  Actual Average Record
Temperature  
Mean Temperature 74 °F -  
Max Temperature 86 °F 83 °F 87 °F (2008)
Min Temperature 62 °F 60 °F 48 °F (2004)
Cooling Degree Days 9    
Growing Degree Days 24 (Base 50)    
Moisture  
Dew Point 44 °F    
Average Humidity 36    
Maximum Humidity 59    
Minimum Humidity 12    
Precipitation  
Precipitation 0.00 in 0.04 in - ()
Sea Level Pressure  
Sea Level Pressure 29.80 in    
Wind  
Wind Speed 11 mph ()    
Max Wind Speed 32 mph    
Max Gust Speed 46 mph    
Visibility 6.2 miles    
Events      
Averages and records for this station are not official NWS values.
T = Trace of Precipitation, MM = Missing Value Source: Averaged Metar Reports

Daily Weather History Graph

Daily Weather History Graph

Search for Another Location

Airport:

Trip Planner

Search our weather history database for the weather conditions in past years. The results will help you decide how hot, cold, wet, or windy it might be!

Date:

Astronomy

May. 26, 2013 Rise Set
Actual Time 6:02 AM EEST 8:47 PM EEST
Civil Twilight 5:30 AM EEST 9:19 PM EEST
Nautical Twilight 4:50 AM EEST 10:00 PM EEST
Astronomical Twilight 4:05 AM EEST 10:46 PM EEST
Moon 10:17 PM EEST (5/26) 7:11 AM EEST (5/26)
Length of Visible Light 15h 48m
Length of Day
14h 44m
Full, 98% of the Moon is Illuminated
May 26
Full
May 31
Last Quarter
Jun 8
New
Jun 16
First Quarter
Jun 23
Full

Hourly Weather History & Observations

Time (EEST) Temp. Dew Point Humidity Pressure Visibility Wind Dir Wind Speed Gust Speed Precip Events Conditions
12:20 AM 69.8 °F 44.6 °F 40% 29.86 in 6.2 mi SW 5.8 mph - N/A   Partly Cloudy
12:50 AM 68.0 °F 44.6 °F 43% 29.86 in 6.2 mi SW 6.9 mph - N/A   Partly Cloudy
1:20 AM 68.0 °F 42.8 °F 40% 29.86 in - SW 5.8 mph - N/A   Clear
1:50 AM 66.2 °F 44.6 °F 46% 29.86 in - SSW 6.9 mph - N/A   Clear
2:20 AM 64.4 °F 44.6 °F 49% 29.83 in - ESE 5.8 mph - N/A   Clear
2:50 AM 64.4 °F 46.4 °F 52% 29.83 in - ESE 4.6 mph - N/A   Clear
3:00 AM 64 °F 46 °F 40% 29.85 in 6 mi ESE 4.6 mph - -  
3:20 AM 64.4 °F 46.4 °F 52% 29.83 in - ESE 4.6 mph - N/A   Clear
3:50 AM 64.4 °F 48.2 °F 56% 29.83 in - ESE 4.6 mph - N/A   Clear
4:20 AM 64.4 °F 46.4 °F 52% 29.83 in - ESE 6.9 mph - N/A   Clear
4:50 AM 62.6 °F 46.4 °F 55% 29.83 in - ESE 8.1 mph - N/A   Clear
5:20 AM 64.4 °F 46.4 °F 52% 29.83 in - ESE 5.8 mph - N/A   Clear
5:50 AM 62.6 °F 48.2 °F 59% 29.83 in - ESE 5.8 mph - N/A   Clear
6:20 AM 62.6 °F 48.2 °F 59% 29.83 in - East 5.8 mph - N/A   Clear
6:50 AM 62.6 °F 48.2 °F 59% 29.83 in - ESE 4.6 mph - N/A   Clear
7:20 AM 66.2 °F 48.2 °F 52% 29.83 in - East 6.9 mph - N/A   Clear
7:50 AM 69.8 °F 48.2 °F 46% 29.83 in 6.2 mi ESE 8.1 mph - N/A   Partly Cloudy
8:20 AM 71.6 °F 46.4 °F 41% 29.83 in 6.2 mi East 10.4 mph - N/A   Partly Cloudy
8:50 AM 73.4 °F 46.4 °F 38% 29.83 in 6.2 mi ESE 9.2 mph - N/A   Partly Cloudy
9:00 AM 73 °F 46 °F 27% 29.83 in 6 mi ESE 9.2 mph - -   Scattered Clouds
9:20 AM 75.2 °F 44.6 °F 34% 29.83 in 6.2 mi SE 8.1 mph - N/A   Partly Cloudy
9:50 AM 77.0 °F 44.6 °F 32% 29.83 in 6.2 mi SE 10.4 mph - N/A   Partly Cloudy
10:20 AM 77.0 °F 44.6 °F 32% 29.83 in 6.2 mi SE 11.5 mph - N/A   Partly Cloudy
10:50 AM 77.0 °F 44.6 °F 32% 29.80 in 6.2 mi SE 11.5 mph - N/A   Partly Cloudy
11:20 AM 78.8 °F 44.6 °F 30% 29.80 in 6.2 mi SSE 15.0 mph - N/A   Partly Cloudy
11:50 AM 78.8 °F 44.6 °F 30% 29.80 in 6.2 mi SSE 15.0 mph - N/A   Partly Cloudy
12:20 PM 78.8 °F 44.6 °F 30% 29.80 in 6.2 mi SSE 13.8 mph - N/A   Partly Cloudy
12:50 PM 80.6 °F 42.8 °F 26% 29.80 in 6.2 mi SSE 13.8 mph - N/A   Partly Cloudy
1:20 PM 82.4 °F 42.8 °F 25% 29.80 in 6.2 mi South 13.8 mph - N/A   Scattered Clouds
1:50 PM 82.4 °F 41.0 °F 23% 29.77 in 6.2 mi South 17.3 mph - N/A   Partly Cloudy
2:20 PM 84.2 °F 41.0 °F 22% 29.77 in 6.2 mi South 17.3 mph - N/A   Partly Cloudy
2:50 PM 84.2 °F 39.2 °F 20% 29.77 in 6.2 mi South 19.6 mph - N/A   Partly Cloudy
3:00 PM 85 °F 40 °F 12% 29.77 in 6 mi South 19.6 mph - -   Scattered Clouds
3:20 PM 86.0 °F 39.2 °F 19% 29.74 in 6.2 mi South 19.6 mph - N/A   Scattered Clouds
3:50 PM 86.0 °F 39.2 °F 19% 29.74 in 6.2 mi South 20.7 mph - N/A   Scattered Clouds
4:20 PM 86.0 °F 39.2 °F 19% 29.71 in 6.2 mi South 19.6 mph - N/A   Partly Cloudy
4:50 PM 86.0 °F 37.4 °F 18% 29.71 in 6.2 mi South 19.6 mph - N/A   Partly Cloudy
5:20 PM 84.2 °F 44.6 °F 25% 29.74 in 6.2 mi WSW 12.7 mph - N/A   Partly Cloudy
5:50 PM 82.4 °F 48.2 °F 30% 29.71 in 6.2 mi West 17.3 mph - N/A   Partly Cloudy
6:20 PM 80.6 °F 44.6 °F 28% 29.71 in 6.2 mi West 20.7 mph - N/A   Partly Cloudy
6:50 PM 80.6 °F 46.4 °F 30% 29.71 in 6.2 mi West 23.0 mph - N/A   Partly Cloudy
7:20 PM 78.8 °F 46.4 °F 32% 29.74 in 6.2 mi West 24.2 mph - N/A   Partly Cloudy
7:50 PM 75.2 °F 46.4 °F 36% 29.77 in 6.2 mi West 28.8 mph 40.3 mph N/A   Partly Cloudy
8:20 PM 71.6 °F 44.6 °F 38% 29.80 in 6.2 mi WNW 32.2 mph 46.0 mph N/A   Partly Cloudy
8:50 PM 69.8 °F 42.8 °F 38% 29.80 in 6.2 mi NW 29.9 mph 41.4 mph N/A   Partly Cloudy
9:00 PM 71 °F 43 °F 25% 29.81 in 6 mi NW 29.9 mph - -   Scattered Clouds
9:20 PM 69.8 °F 42.8 °F 38% 29.80 in 6.2 mi NW 29.9 mph 41.4 mph N/A   Partly Cloudy
9:50 PM 68.0 °F 44.6 °F 43% 29.80 in 6.2 mi WNW 27.6 mph 39.1 mph N/A   Partly Cloudy
10:20 PM 68.0 °F 44.6 °F 43% 29.83 in 6.2 mi WNW 25.3 mph - N/A   Partly Cloudy
10:50 PM 68.0 °F 39.2 °F 35% 29.86 in 6.2 mi NW 24.2 mph - N/A   Partly Cloudy
11:20 PM 68.0 °F 37.4 °F 33% 29.86 in 6.2 mi NNW 17.3 mph - N/A   Partly Cloudy
11:50 PM 68.0 °F 35.6 °F 30% 29.89 in 6.2 mi NW 16.1 mph - N/A   Partly Cloudy